Location: Roanoke
(37.2710°N, 79.9420°W)
Time: 16:42:26
(UTC-05:00)

Courier 1B Rocket - Pass Details

Date: 21 November 2019
Orbit: 920 x 1202 km, 28.2° (Epoch: 12 December)

Event Time Altitude Azimuth Distance (km) Brightness Sun altitude
Rises 14:35:47 0° 239° (WSW) 3,708 9.2 22.7°
Reaches altitude 10° 14:38:37 10° 230° (SW) 2,801 9.3 22.4°
Maximum altitude 14:44:42 35° 167° (SSE) 1,669 7.0 21.6°
Drops below altitude 10° 14:51:12 10° 105° (ESE) 2,993 7.4 20.7°
Sets 14:54:19 0° 97° (E) 3,994 7.9 20.3°
